CZ-7 DEB, 61987

Orbit data source: Space-Track

CZ-7 DEB, 61987 is space debris in LEO originally from a launch on Fri, 15 Nov 2024 UTC launched from the Wenchang Satellite Launch Center (WSC). Debris objects in space refer to the collection of defunct objects orbiting the Earth. Examples of debris include non-operational satellites, rocket bodies, and fragments generated from explosions, collisions, or faulty payload assembly.

Not visible in the next 10 days
CZ-7 DEB details
Identifier
61987, 2024-211E
Orbit
LEO
Last TLE update5 days ago
Origin
Flag of CNCNSA (CN / PRC)
ManufacturerCALT
MissionSpacecraft
Bus & MotorUnknown
MassUnknown
Launch date (UTC)
2024-11-15 (6 days ago)
Launch vehicleUnknown
Launch site
Wenchang Satellite Launch Center (WSC)
Object type
Payload
Rocket body
Debris
Shape & HBRUnknown
Radar Cross SectionRCS unknown

Expand to show TLE details & history

TLE from 5 days ago
0 CZ-7 DEB
1 61987U 24211E   24321.11989614  .04777669  69678-5  55935-2 0  9998
2 61987  41.8022 236.3926 0222688 178.1516 182.0204 15.74500383    67
Epoch: 2024-11-16T02:52Z
Definitive object data (Epoch: 2024-11-16T02:52:39.026Z)
Latitude0.00002°
Longitude137.55205°
Altitude495.314 km
Speed7.534 km/s
True Right ascension15h 45m 34s
True Declination0° 00' 00"
Sunlit
Object was in daylight at TLE epoch
Visualization TLE readout
Latitude12.29668°
Longitude118.3124°
Altitude238.717 km
Speed7.746 km/s
Apparent Right ascension15h 17m 54s
Apparent Declination-13° 37' 31"
Sunlit
Object is in daylight
Visualization observer readout
Local Sidereal Time04:23:21
Azimuth33.246° NE
Elevation-60.039°
Doppler factor1
Orbital elements
Apogee altitude498.033 km
Perigee altitude198.456 km
Semi-major axis6,726.381 km
Eccentricity0.0222688
Inclination41.8022°
RAAN236.3926°
Arg. of periapsis178.1516°
True anomaly181.93287°
Mean anomaly182.0204°
Eccentric anomaly181.9764°
Mean motion3.93433 °/min
BSTAR0.0055935
Orbital period91.5 mins
Loading maneuver chart data...
Loading historical data...
Loading historical data...
Loading historical data...
Loading historical data...
Loading historical data...
Loading historical data...
Loading historical data...
Other satellites on launch #211 in the year 2024 (2024-11-15 UTC)

CZ-7 DEB Visibility forecast

Observer location: undefined°, undefined

CZ-7 DEB is not visible in the next 10 days
Span
Click to sort rows by Start time (UTC) header in descending order
Start Az.
Max El. time (UTC)
Max El. Az.
Max El.
End time (UTC)
End Az.
|